This demonstration page uses our WeatherBlox Daily Observations layout. Learn more.

38.88101, -77.10428

Hourly Observations for April 19, 2020

Temp ( °F °C ) Dew Point ( °F °C ) Humidity (%) Winds ( mph kmh ) Pressure ( in mb ) Visibility ( mi km ) Precip ( " mm )
12:52 am 00:52 Clear 43 6.1 31 -0.6 63 63 W 6 9 30.03 1017 10 16.0934 0 0
1:52 am 01:52 Clear 45 7.2 30 -1.1 56 56 Calm 30.02 1017 10 16.0934 0 0
2:52 am 02:52 Clear 43 6.1 33 0.6 68 68 S 6 9 30 1016 10 16.0934 0 0
3:52 am 03:52 Clear 41 5 32 0 70 70 SW 5 7 29.99 1016 10 16.0934 0 0
4:52 am 04:52 Clear 40 4.4 32 0 73 73 SW 5 7 29.99 1016 10 16.0934 0 0
5:52 am 05:52 Clear 39 3.9 32 0 76 76 SW 3 6 30 1016 10 16.0934 0 0
6:52 am 06:52 Sunny 39 3.9 32 0 76 76 SSW 5 7 30.03 1017 10 16.0934 0 0
7:52 am 07:52 Mostly Sunny 43 6.1 34 1.1 71 71 S 7 11 30.03 1017 10 16.0934 0 0
8:52 am 08:52 Mostly Sunny 48 8.9 39 3.9 71 71 S 6 9 30.02 1017 10 16.0934 0 0
9:52 am 09:52 Mostly Sunny 52 11.1 32 0 47 47 SSW 9 15 30 1016 10 16.0934 0 0
10:52 am 10:52 Mostly Sunny 56 13.3 33 0.6 42 42 SSW 13 20 29.99 1016 10 16.0934 0 0
11:52 am 11:52 Partly Cloudy 58 14.4 34 1.1 41 41 SSW 9 15 29.96 1015 10 16.0934 0 0
12:52 pm 12:52 Mostly Cloudy 61 16.1 34 1.1 36 36 SSW 18 30 29.93 1014 10 16.0934 0 0
1:52 pm 13:52 Mostly Cloudy 61 16.1 34 1.1 36 36 SSW 17 28 29.89 1012 10 16.0934 0 0
2:52 pm 14:52 Cloudy 63 17.2 38 3.3 40 40 S 14 22 29.87 1011 10 16.0934 0 0
3:52 pm 15:52 Cloudy 65 18.3 38 3.3 37 37 SSW 18 30 29.83 1010 10 16.0934 0 0
4:52 pm 16:52 Cloudy 66 18.9 39 3.9 37 37 S 14 22 29.8 1009 10 16.0934 0 0
5:52 pm 17:52 Cloudy 65 18.3 40 4.4 40 40 SSW 10 17 29.78 1008 10 16.0934 0 0
6:52 pm 18:52 Cloudy 64 17.8 44 6.7 48 48 S 8 13 29.76 1008 10 16.0934 0 0
7:52 pm 19:52 Cloudy 64 17.8 38 3.3 38 38 SSW 9 15 29.76 1008 10 16.0934 0 0
8:52 pm 20:52 Cloudy 61 16.1 44 6.7 54 54 SSW 3 6 29.76 1008 10 16.0934 0 0
9:52 pm 21:52 Mostly Cloudy 58 14.4 47 8.3 67 67 S 3 6 29.76 1008 10 16.0934 0 0
10:52 pm 22:52 Cloudy 55 12.8 47 8.3 74 74 SSW 3 6 29.73 1007 10 16.0934 0 0
11:52 pm 23:52 Cloudy 56 13.3 46 7.8 70 70 SW 3 6 29.72 1007 10 16.0934 0 0

Powered by AerisWeather